Time,TemperatureF,DewpointF,PressureIn,WindDirection,WindDirectionDegrees,WindSpeedMPH,WindSpeedGustMPH,Humidity,HourlyPrecipIn,Conditions,Clouds,dailyrainin,SoftwareType,DateUTC
2013-03-30 00:00:00,28.2,21.9,30.16,ENE,67,0.0,0.2,77,0.00,,,0.02,WUHU21623XXSP,2013-03-30 04:00:00,
2013-03-30 00:05:00,28.4,21.8,30.16,ENE,67,0.0,0.0,76,0.00,,,0.00,WUHU21623XXSP,2013-03-30 04:05:00,
2013-03-30 00:10:00,28.4,21.8,30.16,ENE,67,0.0,0.0,76,0.00,,,0.00,WUHU21623XXSP,2013-03-30 04:10:00,
2013-03-30 00:15:00,28.7,22.1,30.16,NE,45,0.0,0.0,76,0.00,,,0.00,WUHU21623XXSP,2013-03-30 04:15:00,
2013-03-30 00:20:00,28.9,22.3,30.16,ENE,67,0.0,0.0,76,0.00,,,0.00,WUHU21623XXSP,2013-03-30 04:20:00,
2013-03-30 00:25:00,29.3,22.4,30.16,WSW,247,0.0,0.0,75,0.00,,,0.00,WUHU21623XXSP,2013-03-30 04:25:00,
2013-03-30 00:30:00,29.6,22.7,30.16,NNW,337,0.0,1.1,75,0.00,,,0.00,WUHU21623XXSP,2013-03-30 04:30:00,
2013-03-30 00:35:00,29.8,22.9,30.16,West,270,0.0,1.1,75,0.00,,,0.00,WUHU21623XXSP,2013-03-30 04:35:00,
2013-03-30 00:40:00,30.2,23.3,30.16,North,0,0.0,0.0,75,0.00,,,0.00,WUHU21623XXSP,2013-03-30 04:40:00,
2013-03-30 00:45:00,30.4,23.5,30.16,NNW,337,0.0,2.0,75,0.00,,,0.00,WUHU21623XXSP,2013-03-30 04:45:00,
2013-03-30 00:50:00,30.5,23.2,30.16,NW,315,0.0,2.0,74,0.00,,,0.00,WUHU21623XXSP,2013-03-30 04:50:00,
2013-03-30 00:55:00,30.5,23.2,30.17,NNW,347,3.0,4.7,74,0.00,,,0.00,WUHU21623XXSP,2013-03-30 04:55:00,
2013-03-30 01:00:00,30.5,23.2,30.17,North,0,0.0,4.7,74,0.00,,,0.00,WUHU21623XXSP,2013-03-30 05:00:00,
2013-03-30 01:05:00,30.5,23.2,30.17,NNE,22,0.0,0.9,74,0.00,,,0.00,WUHU21623XXSP,2013-03-30 05:05:00,
2013-03-30 01:10:00,30.5,23.2,30.16,North,0,0.0,4.3,74,0.00,,,0.00,WUHU21623XXSP,2013-03-30 05:10:00,
2013-03-30 01:15:00,30.4,22.8,30.17,NNE,22,0.0,4.3,73,0.00,,,0.00,WUHU21623XXSP,2013-03-30 05:15:00,
2013-03-30 01:20:00,30.2,22.6,30.16,NNE,22,0.0,0.0,73,0.00,,,0.00,WUHU21623XXSP,2013-03-30 05:20:00,
2013-03-30 01:25:00,29.8,22.2,30.16,NE,45,0.0,0.0,73,0.00,,,0.00,WUHU21623XXSP,2013-03-30 05:25:00,
2013-03-30 01:30:00,29.3,22.1,30.16,ENE,67,0.0,0.0,74,0.00,,,0.00,WUHU21623XXSP,2013-03-30 05:30:00,
2013-03-30 01:35:00,29.3,22.1,30.17,ENE,67,0.0,0.0,74,0.00,,,0.00,WUHU21623XXSP,2013-03-30 05:35:00,
2013-03-30 01:40:00,29.3,22.1,30.17,NE,45,0.0,0.0,74,0.00,,,0.00,WUHU21623XXSP,2013-03-30 05:40:00,
2013-03-30 01:45:00,29.3,22.1,30.16,SE,135,0.0,0.0,74,0.00,,,0.00,WUHU21623XXSP,2013-03-30 05:45:00,
2013-03-30 01:50:00,29.6,22.7,30.16,NE,45,0.0,0.0,75,0.00,,,0.00,WUHU21623XXSP,2013-03-30 05:50:00,
2013-03-30 01:55:00,29.8,22.9,30.16,NE,45,0.0,0.0,75,0.00,,,0.00,WUHU21623XXSP,2013-03-30 05:55:00,
2013-03-30 02:00:00,29.8,22.9,30.16,NE,45,0.0,0.0,75,0.00,,,0.00,WUHU21623XXSP,2013-03-30 06:00:00,
2013-03-30 02:05:00,29.8,22.6,30.16,NE,45,0.0,0.0,74,0.00,,,0.00,WUHU21623XXSP,2013-03-30 06:05:00,
2013-03-30 02:10:00,29.8,22.6,30.16,NE,45,0.0,0.0,74,0.00,,,0.00,WUHU21623XXSP,2013-03-30 06:10:00,
2013-03-30 02:15:00,29.6,22.4,30.16,SE,135,0.0,0.0,74,0.00,,,0.00,WUHU21623XXSP,2013-03-30 06:15:00,
2013-03-30 02:20:00,29.5,22.3,30.16,NE,45,0.0,0.0,74,0.00,,,0.00,WUHU21623XXSP,2013-03-30 06:20:00,
2013-03-30 02:25:00,29.3,22.4,30.16,North,0,0.0,1.8,75,0.00,,,0.00,WUHU21623XXSP,2013-03-30 06:25:00,
2013-03-30 02:30:00,29.6,22.7,30.16,North,0,1.1,3.1,75,0.00,,,0.00,WUHU21623XXSP,2013-03-30 06:30:00,
2013-03-30 02:35:00,29.6,22.7,30.16,WNW,292,0.0,4.5,75,0.00,,,0.00,WUHU21623XXSP,2013-03-30 06:35:00,
2013-03-30 02:40:00,29.3,22.4,30.16,North,0,3.4,4.5,75,0.00,,,0.00,WUHU21623XXSP,2013-03-30 06:40:00,
2013-03-30 02:45:00,29.6,22.7,30.16,North,0,0.0,3.8,75,0.00,,,0.00,WUHU21623XXSP,2013-03-30 06:45:00,
2013-03-30 02:50:00,29.8,22.9,30.16,NW,315,1.3,3.8,75,0.00,,,0.00,WUHU21623XXSP,2013-03-30 06:50:00,
2013-03-30 02:55:00,29.8,22.9,30.16,NW,315,2.9,2.9,75,0.00,,,0.00,WUHU21623XXSP,2013-03-30 06:55:00,
2013-03-30 03:00:00,29.8,22.9,30.16,NW,315,0.0,4.5,75,0.00,,,0.00,WUHU21623XXSP,2013-03-30 07:00:00,
2013-03-30 03:05:00,30.0,23.1,30.16,NW,315,0.0,5.8,75,0.00,,,0.00,WUHU21623XXSP,2013-03-30 07:05:00,
2013-03-30 03:10:00,29.8,22.6,30.16,NW,315,4.3,5.8,74,0.00,,,0.00,WUHU21623XXSP,2013-03-30 07:10:00,
2013-03-30 03:15:00,30.2,23.0,30.16,NNW,337,2.5,4.5,74,0.00,,,0.00,WUHU21623XXSP,2013-03-30 07:15:00,
2013-03-30 03:20:00,30.2,23.0,30.16,NNW,337,0.0,4.5,74,0.00,,,0.00,WUHU21623XXSP,2013-03-30 07:20:00,
2013-03-30 03:25:00,30.2,23.0,30.16,NNW,337,0.0,4.7,74,0.00,,,0.00,WUHU21623XXSP,2013-03-30 07:25:00,
2013-03-30 03:30:00,29.8,22.6,30.16,North,0,0.0,4.7,74,0.00,,,0.00,WUHU21623XXSP,2013-03-30 07:30:00,
2013-03-30 03:35:00,29.8,22.6,30.16,NNE,22,0.0,0.0,74,0.00,,,0.00,WUHU21623XXSP,2013-03-30 07:35:00,
2013-03-30 03:40:00,29.6,22.4,30.16,NNW,337,1.6,2.2,74,0.00,,,0.00,WUHU21623XXSP,2013-03-30 07:40:00,
2013-03-30 03:45:00,29.6,22.4,30.16,NNW,337,2.2,2.2,74,0.00,,,0.00,WUHU21623XXSP,2013-03-30 07:45:00,
2013-03-30 03:50:00,29.6,22.4,30.16,NNW,337,0.0,2.2,74,0.00,,,0.00,WUHU21623XXSP,2013-03-30 07:50:00,
2013-03-30 03:55:00,29.6,22.4,30.16,NNW,328,1.3,2.2,74,0.00,,,0.00,WUHU21623XXSP,2013-03-30 07:55:00,
2013-03-30 04:00:00,29.6,22.4,30.16,NNW,333,2.6,4.7,74,0.00,,,0.00,WUHU21623XXSP,2013-03-30 08:00:00,
2013-03-30 04:05:00,29.8,22.6,30.16,North,0,0.0,4.7,74,0.00,,,0.00,WUHU21623XXSP,2013-03-30 08:05:00,
2013-03-30 04:10:00,29.8,22.6,30.16,NNW,337,0.0,1.6,74,0.00,,,0.00,WUHU21623XXSP,2013-03-30 08:10:00,
2013-03-30 04:15:00,29.8,22.6,30.16,NNE,22,0.0,1.8,74,0.00,,,0.00,WUHU21623XXSP,2013-03-30 08:15:00,
2013-03-30 04:20:00,29.6,22.4,30.16,ENE,67,0.0,1.8,74,0.00,,,0.00,WUHU21623XXSP,2013-03-30 08:20:00,
2013-03-30 04:25:00,29.3,21.8,30.16,ENE,67,0.0,0.0,73,0.00,,,0.00,WUHU21623XXSP,2013-03-30 08:25:00,
2013-03-30 04:30:00,28.9,21.7,30.16,NE,45,0.0,0.0,74,0.00,,,0.00,WUHU21623XXSP,2013-03-30 08:30:00,
2013-03-30 04:35:00,28.7,21.5,30.16,NE,45,0.0,0.0,74,0.00,,,0.00,WUHU21623XXSP,2013-03-30 08:35:00,
2013-03-30 04:40:00,28.7,21.5,30.16,SW,225,2.9,2.9,74,0.00,,,0.00,WUHU21623XXSP,2013-03-30 08:40:00,
2013-03-30 04:45:00,28.6,21.4,30.16,NNE,22,0.0,2.9,74,0.00,,,0.00,WUHU21623XXSP,2013-03-30 08:45:00,
2013-03-30 04:50:00,28.6,21.4,30.16,ENE,67,0.0,0.0,74,0.00,,,0.00,WUHU21623XXSP,2013-03-30 08:50:00,
2013-03-30 04:55:00,28.4,21.2,30.16,ENE,67,0.0,0.0,74,0.00,,,0.00,WUHU21623XXSP,2013-03-30 08:55:00,
2013-03-30 05:00:00,28.2,21.0,30.16,NNW,337,0.0,0.0,74,0.00,,,0.00,WUHU21623XXSP,2013-03-30 09:00:00,
2013-03-30 05:05:00,28.0,20.8,30.16,WNW,292,0.0,0.0,74,0.00,,,0.00,WUHU21623XXSP,2013-03-30 09:05:00,
2013-03-30 05:10:00,28.0,20.8,30.16,West,270,0.0,0.0,74,0.00,,,0.00,WUHU21623XXSP,2013-03-30 09:10:00,
2013-03-30 05:15:00,28.0,20.8,30.16,West,270,0.0,0.0,74,0.00,,,0.00,WUHU21623XXSP,2013-03-30 09:15:00,
2013-03-30 05:20:00,28.0,20.8,30.16,NE,45,0.0,0.0,74,0.00,,,0.00,WUHU21623XXSP,2013-03-30 09:20:00,
2013-03-30 05:25:00,27.8,20.6,30.17,NE,45,0.0,0.0,74,0.00,,,0.00,WUHU21623XXSP,2013-03-30 09:25:00,
2013-03-30 05:30:00,27.8,20.6,30.17,NE,45,0.0,0.0,74,0.00,,,0.00,WUHU21623XXSP,2013-03-30 09:30:00,
2013-03-30 05:34:00,27.8,20.6,30.17,West,270,0.0,0.0,74,0.00,,,0.00,WUHU21623XXSP,2013-03-30 09:34:00,
2013-03-30 05:39:00,27.8,20.6,30.17,SW,225,0.0,0.0,74,0.00,,,0.00,WUHU21623XXSP,2013-03-30 09:39:00,
2013-03-30 05:44:00,27.8,20.6,30.17,West,270,0.0,0.0,74,0.00,,,0.00,WUHU21623XXSP,2013-03-30 09:44:00,
2013-03-30 05:49:00,27.8,20.6,30.17,NW,315,0.0,0.0,74,0.00,,,0.00,WUHU21623XXSP,2013-03-30 09:49:00,
2013-03-30 05:54:00,27.8,20.6,30.17,NE,45,0.0,0.0,74,0.00,,,0.00,WUHU21623XXSP,2013-03-30 09:54:00,
2013-03-30 05:59:00,27.7,20.2,30.17,NNE,22,0.0,0.0,73,0.00,,,0.00,WUHU21623XXSP,2013-03-30 09:59:00,
2013-03-30 06:04:00,27.7,20.2,30.17,NNE,22,0.0,0.0,73,0.00,,,0.00,WUHU21623XXSP,2013-03-30 10:04:00,
2013-03-30 06:09:00,27.5,20.0,30.18,NW,315,0.0,0.0,73,0.00,,,0.00,WUHU21623XXSP,2013-03-30 10:09:00,
2013-03-30 06:14:00,27.7,20.2,30.18,NNE,22,0.0,0.0,73,0.00,,,0.00,WUHU21623XXSP,2013-03-30 10:14:00,
2013-03-30 06:19:00,27.7,20.2,30.18,NE,45,0.0,0.0,73,0.00,,,0.00,WUHU21623XXSP,2013-03-30 10:19:00,
2013-03-30 06:24:00,27.7,20.2,30.18,NNE,22,0.0,0.0,73,0.00,,,0.00,WUHU21623XXSP,2013-03-30 10:24:00,
2013-03-30 06:29:00,27.7,20.2,30.18,ENE,67,0.0,0.0,73,0.00,,,0.00,WUHU21623XXSP,2013-03-30 10:29:00,
2013-03-30 06:34:00,27.5,20.0,30.18,WSW,247,2.3,2.5,73,0.00,,,0.00,WUHU21623XXSP,2013-03-30 10:34:00,
2013-03-30 06:39:00,27.5,20.0,30.18,West,270,0.0,2.5,73,0.00,,,0.00,WUHU21623XXSP,2013-03-30 10:39:00,
2013-03-30 06:44:00,27.5,20.0,30.18,WNW,292,0.0,0.0,73,0.00,,,0.00,WUHU21623XXSP,2013-03-30 10:44:00,
2013-03-30 06:49:00,27.5,20.0,30.18,West,270,0.0,0.0,73,0.00,,,0.00,WUHU21623XXSP,2013-03-30 10:49:00,
2013-03-30 06:54:00,27.5,20.0,30.18,WSW,247,0.0,0.0,73,0.00,,,0.00,WUHU21623XXSP,2013-03-30 10:54:00,
2013-03-30 06:59:00,27.3,19.8,30.18,WSW,247,0.0,0.0,73,0.00,,,0.00,WUHU21623XXSP,2013-03-30 10:59:00,
2013-03-30 07:04:00,27.3,19.8,30.18,NW,315,0.0,0.0,73,0.00,,,0.00,WUHU21623XXSP,2013-03-30 11:04:00,
2013-03-30 07:09:00,27.3,19.8,30.19,North,0,2.9,3.1,73,0.00,,,0.00,WUHU21623XXSP,2013-03-30 11:09:00,
2013-03-30 07:14:00,27.3,19.8,30.18,North,0,0.0,3.1,73,0.00,,,0.00,WUHU21623XXSP,2013-03-30 11:14:00,
2013-03-30 07:19:00,27.3,19.8,30.19,North,0,0.0,0.0,73,0.00,,,0.00,WUHU21623XXSP,2013-03-30 11:19:00,
2013-03-30 07:24:00,27.3,19.8,30.19,North,0,0.0,0.0,73,0.00,,,0.00,WUHU21623XXSP,2013-03-30 11:24:00,
2013-03-30 07:29:00,27.3,19.8,30.19,North,0,0.0,0.0,73,0.00,,,0.00,WUHU21623XXSP,2013-03-30 11:29:00,
2013-03-30 07:34:00,27.5,20.0,30.19,NNW,337,0.0,0.0,73,0.00,,,0.00,WUHU21623XXSP,2013-03-30 11:34:00,
2013-03-30 07:39:00,27.7,20.2,30.19,North,0,0.0,0.0,73,0.00,,,0.00,WUHU21623XXSP,2013-03-30 11:39:00,
2013-03-30 07:44:00,27.8,20.3,30.19,NNW,337,0.0,0.0,73,0.00,,,0.00,WUHU21623XXSP,2013-03-30 11:44:00,
2013-03-30 07:49:00,28.0,20.5,30.19,NNW,337,0.0,0.0,73,0.00,,,0.00,WUHU21623XXSP,2013-03-30 11:49:00,
2013-03-30 07:54:00,28.4,20.9,30.19,NW,315,0.0,2.7,73,0.00,,,0.00,WUHU21623XXSP,2013-03-30 11:54:00,
2013-03-30 07:59:00,28.7,21.2,30.19,NNW,337,0.0,2.7,73,0.00,,,0.00,WUHU21623XXSP,2013-03-30 11:59:00,
2013-03-30 08:04:00,28.9,21.4,30.19,NNW,337,0.0,0.0,73,0.00,,,0.00,WUHU21623XXSP,2013-03-30 12:04:00,
2013-03-30 08:09:00,29.3,21.4,30.20,NNW,337,0.0,0.0,72,0.00,,,0.00,WUHU21623XXSP,2013-03-30 12:09:00,
2013-03-30 08:14:00,29.6,21.7,30.20,NW,315,0.0,0.0,72,0.00,,,0.00,WUHU21623XXSP,2013-03-30 12:14:00,
2013-03-30 08:19:00,29.8,21.9,30.20,NW,315,0.0,2.2,72,0.00,,,0.00,WUHU21623XXSP,2013-03-30 12:19:00,
2013-03-30 08:24:00,30.4,22.2,30.20,NW,314,1.8,2.9,71,0.00,,,0.00,WUHU21623XXSP,2013-03-30 12:24:00,
2013-03-30 08:29:00,30.7,22.5,30.20,WSW,247,4.7,4.7,71,0.00,,,0.00,WUHU21623XXSP,2013-03-30 12:29:00,
2013-03-30 08:34:00,31.3,23.0,30.20,NW,315,0.0,4.7,71,0.00,,,0.00,WUHU21623XXSP,2013-03-30 12:34:00,
2013-03-30 08:39:00,31.6,23.3,30.20,WNW,294,1.5,2.9,71,0.00,,,0.00,WUHU21623XXSP,2013-03-30 12:39:00,
2013-03-30 08:44:00,32.2,23.6,30.20,WNW,292,0.0,2.9,70,0.00,,,0.00,WUHU21623XXSP,2013-03-30 12:44:00,
2013-03-30 08:49:00,32.5,23.5,30.20,NW,320,2.7,4.0,69,0.00,,,0.00,WUHU21623XXSP,2013-03-30 12:49:00,
2013-03-30 08:54:00,32.9,23.9,30.20,NNW,337,2.7,4.0,69,0.00,,,0.00,WUHU21623XXSP,2013-03-30 12:54:00,
2013-03-30 08:59:00,33.2,23.8,30.20,WNW,288,1.2,3.6,68,0.00,,,0.00,WUHU21623XXSP,2013-03-30 12:59:00,
2013-03-30 09:04:00,33.8,24.4,30.19,West,266,2.3,4.0,68,0.00,,,0.00,WUHU21623XXSP,2013-03-30 13:04:00,
2013-03-30 09:09:00,34.1,24.4,30.20,WNW,294,1.4,4.0,67,0.00,,,0.00,WUHU21623XXSP,2013-03-30 13:09:00,
2013-03-30 09:14:00,34.3,24.5,30.20,NW,315,2.9,3.8,67,0.00,,,0.00,WUHU21623XXSP,2013-03-30 13:14:00,
2013-03-30 09:19:00,35.0,24.9,30.20,NW,313,2.5,4.0,66,0.00,,,0.00,WUHU21623XXSP,2013-03-30 13:19:00,
2013-03-30 09:24:00,35.2,25.0,30.20,NW,323,1.9,4.0,66,0.00,,,0.00,WUHU21623XXSP,2013-03-30 13:24:00,
2013-03-30 09:29:00,35.4,24.9,30.20,NW,315,2.4,4.3,65,0.00,,,0.00,WUHU21623XXSP,2013-03-30 13:29:00,
2013-03-30 09:34:00,35.6,24.7,30.20,NW,315,2.5,4.9,64,0.00,,,0.00,WUHU21623XXSP,2013-03-30 13:34:00,
2013-03-30 09:39:00,35.8,24.9,30.20,West,262,2.3,6.5,64,0.00,,,0.00,WUHU21623XXSP,2013-03-30 13:39:00,
2013-03-30 09:44:00,36.1,25.2,30.20,WSW,247,2.9,6.5,64,0.00,,,0.00,WUHU21623XXSP,2013-03-30 13:44:00,
2013-03-30 09:49:00,36.5,25.5,30.20,West,274,2.2,4.5,64,0.00,,,0.00,WUHU21623XXSP,2013-03-30 13:49:00,
2013-03-30 09:54:00,36.8,25.5,30.20,NNW,337,2.9,4.5,63,0.00,,,0.00,WUHU21623XXSP,2013-03-30 13:54:00,
2013-03-30 09:59:00,37.4,26.0,30.20,South,180,1.6,4.5,63,0.00,,,0.00,WUHU21623XXSP,2013-03-30 13:59:00,
2013-03-30 10:04:00,37.7,26.3,30.20,NW,315,0.0,5.1,63,0.00,,,0.00,WUHU21623XXSP,2013-03-30 14:04:00,
2013-03-30 10:09:00,37.9,26.1,30.20,WSW,247,2.3,6.0,62,0.00,,,0.00,WUHU21623XXSP,2013-03-30 14:09:00,
2013-03-30 10:14:00,38.3,26.1,30.20,WSW,249,2.9,6.0,61,0.00,,,0.00,WUHU21623XXSP,2013-03-30 14:14:00,
2013-03-30 10:19:00,38.8,26.6,30.20,NW,309,2.1,5.1,61,0.00,,,0.00,WUHU21623XXSP,2013-03-30 14:19:00,
2013-03-30 10:24:00,38.8,26.6,30.20,NNW,327,2.0,5.1,61,0.00,,,0.00,WUHU21623XXSP,2013-03-30 14:24:00,
2013-03-30 10:29:00,39.2,26.9,30.20,SW,234,0.9,3.1,61,0.00,,,0.00,WUHU21623XXSP,2013-03-30 14:29:00,
2013-03-30 10:34:00,39.7,27.4,30.20,West,267,3.4,6.7,61,0.00,,,0.00,WUHU21623XXSP,2013-03-30 14:34:00,
2013-03-30 10:39:00,40.1,27.4,30.20,NW,315,1.8,6.7,60,0.00,,,0.00,WUHU21623XXSP,2013-03-30 14:39:00,
2013-03-30 10:44:00,40.1,27.0,30.20,NW,320,0.8,5.8,59,0.00,,,0.00,WUHU21623XXSP,2013-03-30 14:44:00,
2013-03-30 10:49:00,40.4,26.8,30.20,NW,321,2.2,4.0,58,0.00,,,0.00,WUHU21623XXSP,2013-03-30 14:49:00,
2013-03-30 10:54:00,40.6,27.0,30.20,WSW,247,2.5,4.9,58,0.00,,,0.00,WUHU21623XXSP,2013-03-30 14:54:00,
2013-03-30 10:59:00,40.8,27.2,30.20,SW,225,2.0,4.9,58,0.00,,,0.00,WUHU21623XXSP,2013-03-30 14:59:00,
2013-03-30 11:04:00,41.0,27.0,30.20,North,0,2.5,5.8,57,0.00,,,0.00,WUHU21623XXSP,2013-03-30 15:04:00,
2013-03-30 11:09:00,41.2,27.2,30.20,NNW,337,3.1,5.8,57,0.00,,,0.00,WUHU21623XXSP,2013-03-30 15:09:00,
2013-03-30 11:14:00,41.5,27.4,30.20,WSW,244,2.1,5.1,57,0.00,,,0.00,WUHU21623XXSP,2013-03-30 15:14:00,
2013-03-30 11:19:00,41.9,26.9,30.20,NW,310,2.1,6.7,55,0.00,,,0.00,WUHU21623XXSP,2013-03-30 15:19:00,
2013-03-30 11:24:00,42.1,27.1,30.20,NW,315,2.9,6.7,55,0.00,,,0.00,WUHU21623XXSP,2013-03-30 15:24:00,
2013-03-30 11:29:00,42.4,27.4,30.20,WNW,292,3.1,5.1,55,0.00,,,0.00,WUHU21623XXSP,2013-03-30 15:29:00,
2013-03-30 11:34:00,42.4,26.9,30.20,WSW,247,3.4,5.6,54,0.00,,,0.00,WUHU21623XXSP,2013-03-30 15:34:00,
2013-03-30 11:39:00,42.8,27.3,30.20,NW,315,4.0,6.7,54,0.00,,,0.00,WUHU21623XXSP,2013-03-30 15:39:00,
2013-03-30 11:44:00,43.1,27.6,30.20,NW,315,4.5,6.7,54,0.00,,,0.00,WUHU21623XXSP,2013-03-30 15:44:00,
2013-03-30 11:49:00,43.1,27.1,30.20,WNW,292,2.7,6.9,53,0.00,,,0.00,WUHU21623XXSP,2013-03-30 15:49:00,
2013-03-30 11:54:00,43.3,27.3,30.20,NNW,330,2.2,6.9,53,0.00,,,0.00,WUHU21623XXSP,2013-03-30 15:54:00,
2013-03-30 11:59:00,43.5,27.0,30.20,NNW,329,3.5,7.2,52,0.00,,,0.00,WUHU21623XXSP,2013-03-30 15:59:00,
2013-03-30 12:04:00,43.7,27.2,30.20,NNW,344,3.8,7.2,52,0.00,,,0.00,WUHU21623XXSP,2013-03-30 16:04:00,
2013-03-30 12:09:00,43.7,27.2,30.19,NW,320,2.8,7.2,52,0.00,,,0.00,WUHU21623XXSP,2013-03-30 16:09:00,
2013-03-30 12:14:00,44.0,27.5,30.19,NNW,343,3.2,6.0,52,0.00,,,0.00,WUHU21623XXSP,2013-03-30 16:14:00,
2013-03-30 12:19:00,44.2,27.7,30.19,West,261,1.6,4.9,52,0.00,,,0.00,WUHU21623XXSP,2013-03-30 16:19:00,
2013-03-30 12:24:00,44.8,27.7,30.19,WNW,284,2.7,4.9,51,0.00,,,0.00,WUHU21623XXSP,2013-03-30 16:24:00,
2013-03-30 12:29:00,45.1,28.0,30.18,WSW,251,2.5,7.4,51,0.00,,,0.00,WUHU21623XXSP,2013-03-30 16:29:00,
2013-03-30 12:34:00,45.7,28.6,30.18,SW,225,2.9,7.4,51,0.00,,,0.00,WUHU21623XXSP,2013-03-30 16:34:00,
2013-03-30 12:39:00,46.0,28.4,30.18,NW,323,2.8,5.4,50,0.00,,,0.00,WUHU21623XXSP,2013-03-30 16:39:00,
2013-03-30 12:44:00,46.2,28.0,30.18,WSW,255,2.5,6.0,49,0.00,,,0.00,WUHU21623XXSP,2013-03-30 16:44:00,
2013-03-30 12:49:00,46.6,27.9,30.18,WNW,292,2.0,6.0,48,0.00,,,0.00,WUHU21623XXSP,2013-03-30 16:49:00,
2013-03-30 12:54:00,46.7,26.9,30.18,WSW,247,3.6,6.5,46,0.00,,,0.00,WUHU21623XXSP,2013-03-30 16:54:00,
2013-03-30 12:59:00,47.1,27.3,30.18,West,270,5.1,8.3,46,0.00,,,0.00,WUHU21623XXSP,2013-03-30 16:59:00,
2013-03-30 13:04:00,47.3,26.3,30.18,NW,316,1.9,8.3,44,0.00,,,0.00,WUHU21623XXSP,2013-03-30 17:04:00,
2013-03-30 13:09:00,47.1,25.6,30.17,NNW,342,3.9,6.3,43,0.00,,,0.00,WUHU21623XXSP,2013-03-30 17:09:00,
2013-03-30 13:14:00,47.3,25.2,30.18,WNW,299,2.9,6.3,42,0.00,,,0.00,WUHU21623XXSP,2013-03-30 17:14:00,
2013-03-30 13:19:00,47.5,24.2,30.17,NW,325,2.3,6.0,40,0.00,,,0.00,WUHU21623XXSP,2013-03-30 17:19:00,
2013-03-30 13:24:00,47.6,24.9,30.17,WSW,247,4.5,4.7,41,0.00,,,0.00,WUHU21623XXSP,2013-03-30 17:24:00,
2013-03-30 13:29:00,47.8,24.4,30.17,NW,306,2.6,7.8,40,0.00,,,0.00,WUHU21623XXSP,2013-03-30 17:29:00,
2013-03-30 13:34:00,47.8,24.4,30.16,NNW,336,1.6,7.8,40,0.00,,,0.00,WUHU21623XXSP,2013-03-30 17:34:00,
2013-03-30 13:39:00,47.8,24.4,30.16,WSW,247,4.3,6.5,40,0.00,,,0.00,WUHU21623XXSP,2013-03-30 17:39:00,
2013-03-30 13:44:00,48.4,25.0,30.16,SW,225,7.4,7.4,40,0.00,,,0.00,WUHU21623XXSP,2013-03-30 17:44:00,
2013-03-30 13:49:00,48.7,25.3,30.16,WNW,292,3.1,7.4,40,0.00,,,0.00,WUHU21623XXSP,2013-03-30 17:49:00,
2013-03-30 13:54:00,48.9,24.8,30.16,NNW,337,3.4,7.4,39,0.00,,,0.00,WUHU21623XXSP,2013-03-30 17:54:00,
2013-03-30 13:59:00,49.1,25.0,30.16,WNW,292,4.3,6.5,39,0.00,,,0.00,WUHU21623XXSP,2013-03-30 17:59:00,
2013-03-30 14:04:00,49.4,24.6,30.16,WNW,283,2.3,5.6,38,0.00,,,0.00,WUHU21623XXSP,2013-03-30 18:04:00,
2013-03-30 14:09:00,49.6,24.8,30.16,WSW,250,3.3,7.4,38,0.00,,,0.00,WUHU21623XXSP,2013-03-30 18:09:00,
2013-03-30 14:14:00,49.6,24.8,30.15,WSW,247,3.2,8.1,38,0.00,,,0.00,WUHU21623XXSP,2013-03-30 18:14:00,
2013-03-30 14:19:00,49.6,24.8,30.15,West,274,3.9,8.1,38,0.00,,,0.00,WUHU21623XXSP,2013-03-30 18:19:00,
2013-03-30 14:24:00,50.2,24.7,30.15,WSW,247,5.1,7.8,37,0.00,,,0.00,WUHU21623XXSP,2013-03-30 18:24:00,
2013-03-30 14:29:00,50.0,24.5,30.15,West,270,2.2,6.9,37,0.00,,,0.00,WUHU21623XXSP,2013-03-30 18:29:00,
2013-03-30 14:34:00,50.2,24.7,30.14,SW,225,1.6,6.7,37,0.00,,,0.00,WUHU21623XXSP,2013-03-30 18:34:00,
2013-03-30 14:39:00,50.2,24.0,30.15,WSW,240,3.3,7.2,36,0.00,,,0.00,WUHU21623XXSP,2013-03-30 18:39:00,
2013-03-30 14:44:00,50.3,24.8,30.15,NNW,329,2.4,7.2,37,0.00,,,0.00,WUHU21623XXSP,2013-03-30 18:44:00,
2013-03-30 14:49:00,50.5,24.3,30.15,NW,312,2.2,6.3,36,0.00,,,0.00,WUHU21623XXSP,2013-03-30 18:49:00,
2013-03-30 14:54:00,50.9,24.7,30.14,WSW,253,2.8,6.3,36,0.00,,,0.00,WUHU21623XXSP,2013-03-30 18:54:00,
2013-03-30 14:59:00,51.2,24.9,30.14,West,277,1.8,5.1,36,0.00,,,0.00,WUHU21623XXSP,2013-03-30 18:59:00,
2013-03-30 15:04:00,51.4,24.4,30.14,WNW,283,3.3,8.3,35,0.00,,,0.00,WUHU21623XXSP,2013-03-30 19:04:00,
2013-03-30 15:09:00,50.9,23.3,30.13,WSW,253,1.7,8.3,34,0.00,,,0.00,WUHU21623XXSP,2013-03-30 19:09:00,
2013-03-30 15:14:00,49.8,23.0,30.14,WSW,247,2.5,6.9,35,0.00,,,0.00,WUHU21623XXSP,2013-03-30 19:14:00,
2013-03-30 15:19:00,49.4,22.6,30.14,West,277,2.3,3.8,35,0.00,,,0.00,WUHU21623XXSP,2013-03-30 19:19:00,
2013-03-30 15:24:00,49.6,23.5,30.13,NW,315,2.5,5.8,36,0.00,,,0.00,WUHU21623XXSP,2013-03-30 19:24:00,
2013-03-30 15:29:00,50.3,24.1,30.13,West,259,1.7,5.8,36,0.00,,,0.00,WUHU21623XXSP,2013-03-30 19:29:00,
2013-03-30 15:34:00,50.7,24.5,30.13,WNW,289,2.0,5.1,36,0.00,,,0.00,WUHU21623XXSP,2013-03-30 19:34:00,
2013-03-30 15:39:00,51.2,24.2,30.13,WNW,295,3.5,8.3,35,0.00,,,0.00,WUHU21623XXSP,2013-03-30 19:39:00,
2013-03-30 15:44:00,51.2,24.2,30.13,WSW,258,3.2,8.3,35,0.00,,,0.00,WUHU21623XXSP,2013-03-30 19:44:00,
2013-03-30 15:49:00,51.4,25.1,30.13,SW,225,2.7,8.1,36,0.00,,,0.00,WUHU21623XXSP,2013-03-30 19:49:00,
2013-03-30 15:54:00,51.8,24.8,30.13,WNW,292,3.4,5.8,35,0.00,,,0.00,WUHU21623XXSP,2013-03-30 19:54:00,
2013-03-30 15:59:00,52.0,24.3,30.12,NW,315,4.7,6.0,34,0.00,,,0.00,WUHU21623XXSP,2013-03-30 19:59:00,
2013-03-30 16:04:00,51.8,23.4,30.12,NNW,337,4.9,7.2,33,0.00,,,0.00,WUHU21623XXSP,2013-03-30 20:04:00,
2013-03-30 16:09:00,51.2,23.5,30.12,WNW,292,4.3,7.2,34,0.00,,,0.00,WUHU21623XXSP,2013-03-30 20:09:00,
2013-03-30 16:14:00,50.9,21.8,30.12,WNW,291,2.6,5.8,32,0.00,,,0.00,WUHU21623XXSP,2013-03-30 20:14:00,
2013-03-30 16:19:00,50.3,22.0,30.12,NNW,329,2.7,5.8,33,0.00,,,0.00,WUHU21623XXSP,2013-03-30 20:19:00,
2013-03-30 16:24:00,50.3,22.0,30.12,North,354,2.2,5.1,33,0.00,,,0.00,WUHU21623XXSP,2013-03-30 20:24:00,
2013-03-30 16:29:00,50.3,22.0,30.12,North,6,2.3,5.1,33,0.00,,,0.00,WUHU21623XXSP,2013-03-30 20:29:00,
2013-03-30 16:34:00,50.3,22.0,30.12,NNW,335,2.7,5.4,33,0.00,,,0.00,WUHU21623XXSP,2013-03-30 20:34:00,
2013-03-30 16:39:00,50.3,22.0,30.12,WNW,292,5.8,5.8,33,0.00,,,0.00,WUHU21623XXSP,2013-03-30 20:39:00,
2013-03-30 16:44:00,50.5,22.2,30.12,WNW,299,2.3,5.8,33,0.00,,,0.00,WUHU21623XXSP,2013-03-30 20:44:00,
2013-03-30 16:49:00,50.7,22.4,30.12,WSW,245,2.8,7.8,33,0.00,,,0.00,WUHU21623XXSP,2013-03-30 20:49:00,
2013-03-30 16:54:00,50.9,22.6,30.11,WNW,299,3.1,7.8,33,0.00,,,0.00,WUHU21623XXSP,2013-03-30 20:54:00,
2013-03-30 16:59:00,50.9,22.6,30.12,WNW,301,4.1,7.4,33,0.00,,,0.00,WUHU21623XXSP,2013-03-30 20:59:00,
2013-03-30 17:04:00,50.3,22.0,30.11,WSW,238,2.4,7.4,33,0.00,,,0.00,WUHU21623XXSP,2013-03-30 21:04:00,
2013-03-30 17:09:00,50.2,22.0,30.11,WNW,286,2.3,4.7,33,0.00,,,0.00,WUHU21623XXSP,2013-03-30 21:09:00,
2013-03-30 17:14:00,50.7,22.4,30.11,SW,225,2.0,5.1,33,0.00,,,0.00,WUHU21623XXSP,2013-03-30 21:14:00,
2013-03-30 17:19:00,51.4,23.7,30.11,WSW,240,1.7,5.1,34,0.00,,,0.00,WUHU21623XXSP,2013-03-30 21:19:00,
2013-03-30 17:24:00,52.5,24.0,30.11,NW,315,1.6,8.5,33,0.00,,,0.00,WUHU21623XXSP,2013-03-30 21:24:00,
2013-03-30 17:29:00,52.7,23.4,30.11,WSW,251,2.5,8.5,32,0.00,,,0.00,WUHU21623XXSP,2013-03-30 21:29:00,
2013-03-30 17:34:00,52.0,22.1,30.11,WSW,247,4.9,5.4,31,0.00,,,0.00,WUHU21623XXSP,2013-03-30 21:34:00,
2013-03-30 17:39:00,51.4,21.5,30.11,West,270,0.8,5.8,31,0.00,,,0.00,WUHU21623XXSP,2013-03-30 21:39:00,
2013-03-30 17:44:00,50.9,21.8,30.10,West,278,1.0,5.8,32,0.00,,,0.00,WUHU21623XXSP,2013-03-30 21:44:00,
2013-03-30 17:49:00,51.2,22.1,30.10,NNW,348,1.5,3.8,32,0.00,,,0.00,WUHU21623XXSP,2013-03-30 21:49:00,
2013-03-30 17:54:00,51.1,22.0,30.10,WNW,292,2.5,5.8,32,0.00,,,0.00,WUHU21623XXSP,2013-03-30 21:54:00,
2013-03-30 17:59:00,50.9,21.8,30.10,West,279,1.7,5.8,32,0.00,,,0.00,WUHU21623XXSP,2013-03-30 21:59:00,
2013-03-30 18:04:00,50.7,21.7,30.10,WSW,247,3.1,5.4,32,0.00,,,0.00,WUHU21623XXSP,2013-03-30 22:04:00,
2013-03-30 18:09:00,50.9,22.6,30.10,WNW,300,2.3,5.4,33,0.00,,,0.00,WUHU21623XXSP,2013-03-30 22:09:00,
2013-03-30 18:14:00,51.4,21.5,30.10,West,270,1.2,3.6,31,0.00,,,0.00,WUHU21623XXSP,2013-03-30 22:14:00,
2013-03-30 18:19:00,51.2,22.1,30.11,WNW,292,1.8,3.6,32,0.00,,,0.00,WUHU21623XXSP,2013-03-30 22:19:00,
2013-03-30 18:24:00,51.2,22.1,30.10,SW,231,2.5,3.8,32,0.00,,,0.00,WUHU21623XXSP,2013-03-30 22:24:00,
2013-03-30 18:29:00,50.5,20.7,30.10,NNW,337,0.0,3.8,31,0.00,,,0.00,WUHU21623XXSP,2013-03-30 22:29:00,
2013-03-30 18:34:00,50.0,21.0,30.10,NW,315,0.0,2.7,32,0.00,,,0.00,WUHU21623XXSP,2013-03-30 22:34:00,
2013-03-30 18:39:00,49.4,20.5,30.10,WNW,303,2.6,3.4,32,0.00,,,0.00,WUHU21623XXSP,2013-03-30 22:39:00,
2013-03-30 18:44:00,48.7,19.9,30.11,NW,315,1.4,3.4,32,0.00,,,0.00,WUHU21623XXSP,2013-03-30 22:44:00,
2013-03-30 18:49:00,48.2,20.2,30.10,West,270,1.1,2.9,33,0.00,,,0.00,WUHU21623XXSP,2013-03-30 22:49:00,
2013-03-30 18:54:00,47.3,19.4,30.10,NW,315,0.0,1.1,33,0.00,,,0.00,WUHU21623XXSP,2013-03-30 22:54:00,
2013-03-30 18:59:00,46.6,18.8,30.10,WSW,247,0.0,0.0,33,0.00,,,0.00,WUHU21623XXSP,2013-03-30 22:59:00,
2013-03-30 19:04:00,45.7,18.7,30.10,West,270,0.0,0.0,34,0.00,,,0.00,WUHU21623XXSP,2013-03-30 23:04:00,
2013-03-30 19:09:00,44.9,18.7,30.11,NW,315,2.1,3.4,35,0.00,,,0.00,WUHU21623XXSP,2013-03-30 23:09:00,
2013-03-30 19:14:00,44.2,18.7,30.10,NNE,22,4.5,6.0,36,0.00,,,0.00,WUHU21623XXSP,2013-03-30 23:14:00,
2013-03-30 19:19:00,43.7,19.5,30.11,NNE,22,3.5,6.0,38,0.00,,,0.00,WUHU21623XXSP,2013-03-30 23:19:00,
2013-03-30 19:24:00,43.1,19.6,30.11,NNE,20,2.6,5.8,39,0.00,,,0.00,WUHU21623XXSP,2013-03-30 23:24:00,
2013-03-30 19:29:00,42.4,20.2,30.11,NE,45,3.1,5.1,41,0.00,,,0.00,WUHU21623XXSP,2013-03-30 23:29:00,
2013-03-30 19:34:00,41.7,20.1,30.10,NE,45,4.3,8.1,42,0.00,,,0.00,WUHU21623XXSP,2013-03-30 23:34:00,
2013-03-30 19:39:00,41.3,19.8,30.11,NNE,31,2.5,8.1,42,0.00,,,0.00,WUHU21623XXSP,2013-03-30 23:39:00,
2013-03-30 19:44:00,40.6,20.2,30.11,NE,35,3.2,5.6,44,0.00,,,0.00,WUHU21623XXSP,2013-03-30 23:44:00,
2013-03-30 19:49:00,40.1,20.3,30.11,NE,45,2.0,5.6,45,0.00,,,0.00,WUHU21623XXSP,2013-03-30 23:49:00,
2013-03-30 19:54:00,39.7,19.4,30.11,NNE,31,1.4,4.0,44,0.00,,,0.00,WUHU21623XXSP,2013-03-30 23:54:00,
2013-03-30 19:59:00,39.2,20.0,30.10,ENE,62,3.1,4.3,46,0.00,,,0.00,WUHU21623XXSP,2013-03-30 23:59:00,
2013-03-30 20:04:00,38.6,20.0,30.11,ENE,61,1.4,4.3,47,0.00,,,0.00,WUHU21623XXSP,2013-03-31 00:04:00,
2013-03-30 20:09:00,37.9,20.4,30.11,ENE,67,0.8,4.0,49,0.00,,,0.00,WUHU21623XXSP,2013-03-31 00:09:00,
2013-03-30 20:14:00,36.8,19.3,30.11,ENE,67,0.0,2.5,49,0.00,,,0.00,WUHU21623XXSP,2013-03-31 00:14:00,
2013-03-30 20:19:00,36.1,19.2,30.11,ENE,67,0.0,0.0,50,0.00,,,0.00,WUHU21623XXSP,2013-03-31 00:19:00,
2013-03-30 20:24:00,35.4,18.5,30.11,ENE,67,0.0,0.0,50,0.00,,,0.00,WUHU21623XXSP,2013-03-31 00:24:00,
2013-03-30 20:29:00,35.0,18.6,30.11,ENE,67,0.0,0.0,51,0.00,,,0.00,WUHU21623XXSP,2013-03-31 00:29:00,
2013-03-30 20:34:00,34.5,19.6,30.11,ENE,67,0.0,0.0,54,0.00,,,0.00,WUHU21623XXSP,2013-03-31 00:34:00,
2013-03-30 20:39:00,34.0,19.5,30.11,ENE,67,0.0,0.0,55,0.00,,,0.00,WUHU21623XXSP,2013-03-31 00:39:00,
2013-03-30 20:44:00,33.8,19.3,30.11,ENE,67,0.0,0.0,55,0.00,,,0.00,WUHU21623XXSP,2013-03-31 00:44:00,
2013-03-30 20:49:00,33.4,19.0,30.11,ESE,112,0.0,0.0,55,0.00,,,0.00,WUHU21623XXSP,2013-03-31 00:49:00,
2013-03-30 20:54:00,33.4,19.8,30.11,ENE,67,0.0,0.0,57,0.00,,,0.00,WUHU21623XXSP,2013-03-31 00:54:00,
2013-03-30 20:59:00,33.1,20.0,30.11,ENE,67,2.9,2.9,58,0.00,,,0.00,WUHU21623XXSP,2013-03-31 00:59:00,
2013-03-30 21:04:00,32.9,20.2,30.11,ENE,67,0.0,2.9,59,0.00,,,0.00,WUHU21623XXSP,2013-03-31 01:04:00,
2013-03-30 21:09:00,32.3,20.0,30.11,ENE,67,0.0,2.5,60,0.00,,,0.00,WUHU21623XXSP,2013-03-31 01:09:00,
2013-03-30 21:14:00,32.2,19.9,30.11,ENE,67,0.0,0.0,60,0.00,,,0.00,WUHU21623XXSP,2013-03-31 01:14:00,
2013-03-30 21:19:00,32.0,20.5,30.11,ENE,67,1.7,2.9,62,0.00,,,0.00,WUHU21623XXSP,2013-03-31 01:19:00,
2013-03-30 21:24:00,32.0,20.5,30.11,ENE,67,0.0,2.9,62,0.00,,,0.00,WUHU21623XXSP,2013-03-31 01:24:00,
2013-03-30 21:29:00,31.6,20.1,30.11,ENE,67,0.0,2.7,62,0.00,,,0.00,WUHU21623XXSP,2013-03-31 01:29:00,
2013-03-30 21:34:00,31.6,19.7,30.11,ENE,67,0.0,0.0,61,0.00,,,0.00,WUHU21623XXSP,2013-03-31 01:34:00,
2013-03-30 21:39:00,31.3,20.2,30.12,ENE,67,0.0,0.0,63,0.00,,,0.00,WUHU21623XXSP,2013-03-31 01:39:00,
2013-03-30 21:44:00,30.9,20.2,30.11,ENE,67,0.0,0.0,64,0.00,,,0.00,WUHU21623XXSP,2013-03-31 01:44:00,
2013-03-30 21:49:00,30.5,19.8,30.11,ENE,67,0.0,0.0,64,0.00,,,0.00,WUHU21623XXSP,2013-03-31 01:49:00,
2013-03-30 21:54:00,30.5,19.8,30.11,ENE,67,0.0,0.0,64,0.00,,,0.00,WUHU21623XXSP,2013-03-31 01:54:00,
2013-03-30 21:59:00,30.5,20.2,30.11,ENE,67,0.0,0.0,65,0.00,,,0.00,WUHU21623XXSP,2013-03-31 01:59:00,
2013-03-30 22:04:00,30.5,19.8,30.11,ESE,112,0.0,0.0,64,0.00,,,0.00,WUHU21623XXSP,2013-03-31 02:04:00,
2013-03-30 22:09:00,30.7,20.0,30.11,ESE,112,0.0,0.0,64,0.00,,,0.00,WUHU21623XXSP,2013-03-31 02:09:00,
2013-03-30 22:14:00,30.7,20.4,30.11,ENE,67,0.0,0.0,65,0.00,,,0.00,WUHU21623XXSP,2013-03-31 02:14:00,
2013-03-30 22:20:00,30.7,20.4,30.11,ENE,67,0.0,0.0,65,0.00,,,0.00,WUHU21623XXSP,2013-03-31 02:20:00,
2013-03-30 22:25:00,30.7,20.4,30.11,ENE,67,0.0,0.0,65,0.00,,,0.00,WUHU21623XXSP,2013-03-31 02:25:00,
2013-03-30 22:30:00,30.5,20.2,30.11,ENE,67,0.0,0.0,65,0.00,,,0.00,WUHU21623XXSP,2013-03-31 02:30:00,
2013-03-30 22:35:00,30.5,20.2,30.11,ENE,67,0.0,0.0,65,0.00,,,0.00,WUHU21623XXSP,2013-03-31 02:35:00,
2013-03-30 22:40:00,30.4,20.1,30.11,ENE,67,0.0,0.0,65,0.00,,,0.00,WUHU21623XXSP,2013-03-31 02:40:00,
2013-03-30 22:45:00,30.4,20.1,30.11,ENE,67,0.0,0.0,65,0.00,,,0.00,WUHU21623XXSP,2013-03-31 02:45:00,
2013-03-30 22:50:00,30.4,20.1,30.11,ENE,67,0.0,0.0,65,0.00,,,0.00,WUHU21623XXSP,2013-03-31 02:50:00,
2013-03-30 22:55:00,30.2,19.5,30.10,ENE,67,0.0,0.0,64,0.00,,,0.00,WUHU21623XXSP,2013-03-31 02:55:00,
2013-03-30 23:00:00,30.2,19.5,30.10,SE,135,1.5,1.8,64,0.00,,,0.00,WUHU21623XXSP,2013-03-31 03:00:00,
2013-03-30 23:05:00,30.2,19.5,30.10,SE,135,2.5,4.3,64,0.00,,,0.00,WUHU21623XXSP,2013-03-31 03:05:00,
2013-03-30 23:10:00,30.4,20.1,30.10,SE,135,0.0,4.3,65,0.00,,,0.00,WUHU21623XXSP,2013-03-31 03:10:00,
2013-03-30 23:15:00,30.5,20.2,30.10,SE,135,1.0,3.6,65,0.00,,,0.00,WUHU21623XXSP,2013-03-31 03:15:00,
2013-03-30 23:20:00,30.4,20.1,30.10,SE,135,0.0,2.2,65,0.00,,,0.00,WUHU21623XXSP,2013-03-31 03:20:00,
2013-03-30 23:25:00,30.4,20.1,30.10,ESE,112,0.0,0.9,65,0.00,,,0.00,WUHU21623XXSP,2013-03-31 03:25:00,
2013-03-30 23:30:00,30.2,19.9,30.09,SE,135,0.9,2.2,65,0.00,,,0.00,WUHU21623XXSP,2013-03-31 03:30:00,
2013-03-30 23:35:00,30.2,19.9,30.09,SE,135,0.0,2.2,65,0.00,,,0.00,WUHU21623XXSP,2013-03-31 03:35:00,
2013-03-30 23:40:00,30.2,19.9,30.09,SE,135,0.0,3.1,65,0.00,,,0.00,WUHU21623XXSP,2013-03-31 03:40:00,
2013-03-30 23:45:00,30.2,19.5,30.09,SE,135,0.0,3.1,64,0.00,,,0.00,WUHU21623XXSP,2013-03-31 03:45:00,
2013-03-30 23:50:00,29.8,19.2,30.09,SE,135,0.0,0.0,64,0.00,,,0.00,WUHU21623XXSP,2013-03-31 03:50:00,
2013-03-30 23:55:00,29.8,19.5,30.09,SE,135,2.0,3.8,65,0.00,,,0.00,WUHU21623XXSP,2013-03-31 03:55:00,